Flag for U.S.A. Weather past 2 weeks in Vevay, Indiana, U.S.A.

Now
69 °F

Partly cloudy.


Feels Like: 69 °F
Forecast: 60 / 68 °F
Wind: 10 mph from East

Location: Cincinnati / Northern Kentucky International Airport

Current Time: Apr 18, 2015 at 11:52:58 PM

Latest Report: Apr 18, 2015 at 10:52 PM


Visibility: 10 mi

Pressure: 29.94 "Hg

Humidity: 42%

Dew point: 45 °F

Location of VevayLocation

Historic Weather in Vevay — Graph

°F

Vevay temperature yesterday

Maximum temperature yesterday: 75 °F (at 4:52 PM)
Minimum temperature yesterday: 59 °F (at 6:52 AM)
Average temperature yesterday: 66 °F

Past Weeks' High & Low Weather Summary

 TemperatureHumidityPressure
High78 °F (Apr 18, 3:52 PM)100% (Apr 7, 5:56 AM)30.36 "Hg (Apr 7, 5:56 AM)
Low33 °F (Apr 4, 7:52 AM)22% (Apr 5, 4:52 PM)29.67 "Hg (Apr 10, 4:52 AM)
Average59 °F62%30.08 "Hg
* Reported Apr 3 10:52 PM — Apr 18 10:52 PM, Vevay, Weather by CustomWeather, © 2015

Note: Actual official high and low records may vary slightly from our data, if they occured in-between our weather recording intervals... More about our weather records

Advertising

Vevay weather history for previous 24 hours

 ConditionsComfort  
Time TempWeatherWind HumidityBarometerVisibility
10:52 PM
Sat, Apr 18
69 °FPartly cloudy.10 mph42%29.94 "Hg10 mi
9:52 PM70 °FPartly cloudy.8 mph41%29.95 "Hg10 mi
8:52 PM70 °FBroken clouds.8 mph42%29.95 "Hg10 mi
7:52 PM74 °FBroken clouds.12 mph37%29.94 "Hg10 mi
6:52 PM76 °FBroken clouds.15 mph32%29.93 "Hg10 mi
5:52 PM77 °FBroken clouds.14 mph33%29.95 "Hg10 mi
4:52 PM77 °FBroken clouds.12 mph32%29.96 "Hg10 mi
3:52 PM78 °FBroken clouds.14 mph32%29.98 "Hg10 mi
2:52 PM77 °FBroken clouds.10 mph33%29.99 "Hg10 mi
1:52 PM75 °FBroken clouds.5 mph34%30.02 "Hg10 mi
12:52 PM73 °FBroken clouds.8 mph40%30.03 "Hg10 mi
11:52 AM72 °FMostly cloudy.7 mph37%30.04 "Hg10 mi
10:52 AM69 °FPartly sunny.3 mph49%30.03 "Hg10 mi
9:52 AM66 °FPartly sunny.3 mph52%30.04 "Hg10 mi
8:52 AM62 °FScattered clouds.5 mph60%30.05 "Hg10 mi
7:52 AM54 °FPassing clouds.3 mph77%30.04 "Hg9 mi
6:52 AM51 °FPassing clouds.No wind74%30.02 "Hg10 mi
5:52 AM54 °FClear.No wind67%30.02 "Hg10 mi
4:52 AM54 °FClear.No wind69%30.02 "Hg10 mi
3:52 AM55 °FClear.No wind69%30.03 "Hg10 mi
2:52 AM58 °FPassing clouds.No wind58%30.03 "Hg10 mi
1:52 AM62 °FClear.No wind50%30.02 "Hg10 mi
12:52 AM61 °FPassing clouds.No wind62%30.01 "Hg10 mi
11:52 PM
Fri, Apr 17
59 °FPassing clouds.No wind62%30.03 "Hg10 mi
Weather by CustomWeather, © 2015

See weather overviewHow to use our weather pages